Custer, SD

3:28 PM MDT on October 23, 2017 (GMT -0600)
Custer County

Weather History for KCUT - July, 2013

Change the Weather History Date:

Tuesday, July 16, 2013

  Actual Average Record
Temperature  
Mean Temperature 68 °F 66 °F  
Max Temperature 81 °F 80 °F 96 °F (2005)
Min Temperature 55 °F 52 °F 35 °F (1951)
Degree Days  
Heating Degree Days 0 2  
Month to date heating degree days 10 36  
Since 1 June heating degree days 203 256  
Since 1 July heating degree days 10 36  
Cooling Degree Days 3 3  
Month to date cooling degree days 38 38  
Year to date cooling degree days 49 64  
Since 1 June cooling degree days 47 63  
Growing Degree Days 18 (Base 50)    
Moisture  
Dew Point 47 °F    
Average Humidity 47    
Maximum Humidity 61    
Minimum Humidity 33    
Precipitation  
Precipitation 0.00 in 0.08 in 1.41 in (1969)
Month to date precipitation 2.23 1.27  
Year to date precipitation 10.41 11.60  
Sea Level Pressure  
Sea Level Pressure 30.06 in    
Wind  
Wind Speed 6 mph (South)    
Max Wind Speed 12 mph    
Max Gust Speed 17 mph    
Visibility 10 miles    
Events      
T = Trace of Precipitation, MM = Missing Value Source: NWS Daily Summary

Daily Weather History Graph

Daily Weather History Graph

Search for Another Location

Airport or City:

Trip Planner

Search our weather history database for the weather conditions in past years. The results will help you decide how hot, cold, wet, or windy it might be!

Date:

Astronomy

Jul. 16, 2013 Rise Set
Actual Time 5:27 AM MDT 8:33 PM MDT
Civil Twilight 4:53 AM MDT 9:07 PM MDT
Nautical Twilight 4:08 AM MDT 9:51 PM MDT
Astronomical Twilight 3:15 AM MDT 10:44 PM MDT
Moon 2:12 PM MDT (7/16) 12:04 AM MDT (7/16)
Length of Visible Light 16h 14m
Length of Day
15h 05m
First Quarter, 57% of the Moon is Illuminated
Jul 16
First Quarter
Jul 22
Full
Jul 29
Last Quarter
Aug 6
New
Aug 14
First Quarter

Hourly Weather History & Observations

Time (MDT) Temp. Dew Point Humidity Pressure Visibility Wind Dir Wind Speed Gust Speed Precip Events Conditions
12:53 AM 63.0 °F 46.9 °F 56% 30.03 in 10.0 mi Variable 4.6 mph - N/A   Clear
1:53 AM 63.0 °F 44.1 °F 50% 30.03 in 10.0 mi SSW 8.1 mph - N/A   Clear
2:53 AM 63.0 °F 41.0 °F 45% 30.02 in 10.0 mi Variable 5.8 mph - N/A   Clear
3:53 AM 61.0 °F 41.0 °F 48% 30.01 in 10.0 mi WSW 5.8 mph - N/A   Clear
4:53 AM 59.0 °F 42.1 °F 53% 30.03 in 10.0 mi SW 5.8 mph - N/A   Clear
5:53 AM 55.9 °F 42.1 °F 60% 30.04 in 10.0 mi West 4.6 mph - N/A   Clear
6:53 AM 61.0 °F 46.0 °F 58% 30.04 in 10.0 mi West 5.8 mph - N/A   Clear
7:53 AM 64.9 °F 46.9 °F 52% 30.04 in 10.0 mi SW 6.9 mph - N/A   Clear
8:53 AM 69.1 °F 46.0 °F 44% 30.06 in 10.0 mi SSW 6.9 mph - N/A   Clear
9:53 AM 73.0 °F 46.9 °F 39% 30.06 in 10.0 mi Variable 4.6 mph - N/A   Clear
10:53 AM 73.9 °F 46.0 °F 37% 30.07 in 10.0 mi Variable 3.5 mph - N/A   Clear
11:53 AM 75.9 °F 44.1 °F 32% 30.07 in 10.0 mi SSE 8.1 mph - N/A   Clear
12:53 PM 77.0 °F 46.0 °F 33% 30.07 in 10.0 mi Variable 6.9 mph - N/A   Clear
1:53 PM 79.0 °F 45.0 °F 30% 30.06 in 10.0 mi Calm Calm - N/A   Clear
2:53 PM 80.1 °F 48.0 °F 32% 30.05 in 10.0 mi SE 8.1 mph 17.3 mph N/A   Clear
3:53 PM 80.1 °F 48.0 °F 32% 30.06 in 10.0 mi SSE 8.1 mph - N/A   Clear
4:53 PM 79.0 °F 48.9 °F 35% 30.06 in 10.0 mi SSE 9.2 mph - N/A   Clear
5:53 PM 78.1 °F 48.0 °F 35% 30.08 in 10.0 mi Variable 5.8 mph - N/A   Clear
6:53 PM 77.0 °F 48.9 °F 37% 30.06 in 10.0 mi SE 6.9 mph - N/A   Clear
7:53 PM 73.9 °F 48.9 °F 41% 30.07 in 10.0 mi SE 5.8 mph - N/A   Clear
8:53 PM 71.1 °F 50.0 °F 47% 30.09 in 10.0 mi SE 4.6 mph - N/A   Clear
9:53 PM 68.0 °F 51.1 °F 55% 30.11 in 10.0 mi South 3.5 mph - N/A   Clear
10:53 PM 66.0 °F 51.1 °F 59% 30.12 in 10.0 mi Calm Calm - N/A   Clear
11:53 PM 64.9 °F 51.1 °F 61% 30.13 in 10.0 mi SSW 3.5 mph - N/A   Clear